,,,PA_Meas_PMT16A,,PR_Meas_QMR101_102,,RH_Meas_QMH101,,SR_Meas_QMS101,,TA_Meas_QMH101,,GenWind,,GenWind,
date,time,status,PA,status,PR,status,RH,status,SR,status,TA,status,DirAvg,status,SpdAvg,
2009-10-19, 00:00:04,VALID,1006.58,VALID,0,VALID,94.0641,VALID,0,VALID,24.4822,VALID,66,VALID,0,
2009-10-19, 00:01:04,VALID,1006.59,VALID,0,VALID,94.0794,VALID,0,VALID,24.422,VALID,66,VALID,0,
2009-10-19, 00:02:04,VALID,1006.54,VALID,0,VALID,94.1251,VALID,0,VALID,24.4628,VALID,66,VALID,0,
2009-10-19, 00:03:04,VALID,1006.53,VALID,0,VALID,94.1404,VALID,0,VALID,24.4414,VALID,66,VALID,0,
2009-10-19, 00:04:04,VALID,1006.5,VALID,0,VALID,94.1709,VALID,0,VALID,24.4628,VALID,66,VALID,0,
2009-10-19, 00:05:04,VALID,1006.47,VALID,0,VALID,94.1785,VALID,0,VALID,24.4433,VALID,66,VALID,0,
2009-10-19, 00:06:04,VALID,1006.44,VALID,0,VALID,94.1938,VALID,0,VALID,24.4433,VALID,66,VALID,0,
2009-10-19, 00:07:04,VALID,1006.45,VALID,0,VALID,94.2243,VALID,0,VALID,24.4433,VALID,66,VALID,0,
2009-10-19, 00:08:04,VALID,1006.4,VALID,0,VALID,94.2396,VALID,0,VALID,24.4433,VALID,66,VALID,0,
2009-10-19, 00:09:04,VALID,1006.41,VALID,0,VALID,94.2701,VALID,0,VALID,24.422,VALID,66,VALID,0,
2009-10-19, 00:10:04,VALID,1006.38,VALID,0,VALID,94.2853,VALID,0,VALID,24.4025,VALID,66,VALID,0,
2009-10-19, 00:11:04,VALID,1006.35,VALID,0,VALID,94.293,VALID,0,VALID,24.4043,VALID,66,VALID,0,
2009-10-19, 00:12:04,VALID,1006.34,VALID,0,VALID,94.3082,VALID,0,VALID,24.4238,VALID,66,VALID,0,
2009-10-19, 00:13:04,VALID,1006.31,VALID,0,VALID,94.3235,VALID,0,VALID,24.383,VALID,66,VALID,0,
2009-10-19, 00:14:04,VALID,1006.3,VALID,0,VALID,94.3387,VALID,0,VALID,24.383,VALID,66,VALID,0,
2009-10-19, 00:15:04,VALID,1006.29,VALID,0,VALID,94.3387,VALID,0,VALID,24.3636,VALID,66,VALID,0,
2009-10-19, 00:16:04,VALID,1006.29,VALID,0,VALID,94.3692,VALID,0.100563,VALID,24.3636,VALID,66,VALID,0,
2009-10-19, 00:17:04,VALID,1006.31,VALID,0,VALID,94.3769,VALID,0,VALID,24.3636,VALID,66,VALID,0,
2009-10-19, 00:18:04,VALID,1006.29,VALID,0,VALID,94.415,VALID,0,VALID,24.3654,VALID,66,VALID,0,
2009-10-19, 00:19:04,VALID,1006.3,VALID,0,VALID,94.3998,VALID,0,VALID,24.3459,VALID,66,VALID,0,
2009-10-19, 00:20:04,VALID,1006.28,VALID,0,VALID,94.3998,VALID,0,VALID,24.3246,VALID,66,VALID,0,
2009-10-19, 00:21:04,VALID,1006.27,VALID,0,VALID,94.3998,VALID,0,VALID,24.3052,VALID,66,VALID,0,
2009-10-19, 00:22:04,VALID,1006.25,VALID,0,VALID,94.4303,VALID,0,VALID,24.3052,VALID,66,VALID,0,
2009-10-19, 00:23:04,VALID,1006.24,VALID,0,VALID,94.4532,VALID,0,VALID,24.3246,VALID,66,VALID,0,
2009-10-19, 00:24:04,VALID,1006.21,VALID,0,VALID,94.4761,VALID,0.100563,VALID,24.3246,VALID,66,VALID,0,
2009-10-19, 00:25:04,VALID,1006.23,VALID,0,VALID,94.4761,VALID,0.100563,VALID,24.3459,VALID,66,VALID,0,
2009-10-19, 00:26:04,VALID,1006.21,VALID,0,VALID,94.4913,VALID,0,VALID,24.3246,VALID,66,VALID,0,
2009-10-19, 00:27:04,VALID,1006.22,VALID,0,VALID,94.4837,VALID,0,VALID,24.3265,VALID,66,VALID,0,
2009-10-19, 00:28:04,VALID,1006.22,VALID,0,VALID,94.4913,VALID,0,VALID,24.3052,VALID,66,VALID,0,
2009-10-19, 00:29:04,VALID,1006.23,VALID,0,VALID,94.5066,VALID,0,VALID,24.2857,VALID,66,VALID,0,
2009-10-19, 00:30:04,VALID,1006.21,VALID,0,VALID,94.4913,VALID,0,VALID,24.307,VALID,66,VALID,0,
2009-10-19, 00:31:04,VALID,1006.19,VALID,0,VALID,94.5066,VALID,0,VALID,24.2662,VALID,66,VALID,0,
2009-10-19, 00:32:04,VALID,1006.19,VALID,0,VALID,94.5066,VALID,0,VALID,24.2681,VALID,66,VALID,0,
2009-10-19, 00:33:04,VALID,1006.16,VALID,0,VALID,94.4989,VALID,0.100563,VALID,24.2681,VALID,66,VALID,0,
2009-10-19, 00:34:04,VALID,1006.14,VALID,0,VALID,94.5066,VALID,0,VALID,24.2468,VALID,66,VALID,0.173047,
2009-10-19, 00:35:04,VALID,1006.13,VALID,0,VALID,94.5142,VALID,0,VALID,24.2681,VALID,66,VALID,0.221094,
2009-10-19, 00:36:04,VALID,1006.11,VALID,0,VALID,94.5218,VALID,0.100563,VALID,24.2078,VALID,66,VALID,0.130859,
2009-10-19, 00:37:04,VALID,1006.07,VALID,0,VALID,94.5142,VALID,0,VALID,24.2291,VALID,66,VALID,0.325,
2009-10-19, 00:38:04,VALID,1006.05,VALID,0,VALID,94.5523,VALID,0,VALID,24.2097,VALID,66,VALID,0.269922,
2009-10-19, 00:39:04,VALID,1006.03,VALID,0,VALID,94.5447,VALID,0.100563,VALID,24.2078,VALID,66,VALID,0,
2009-10-19, 00:40:04,VALID,1006,VALID,0,VALID,94.56,VALID,0,VALID,24.2097,VALID,66,VALID,0.319531,
2009-10-19, 00:41:04,VALID,1006.02,VALID,0,VALID,94.5447,VALID,0,VALID,24.1884,VALID,67,VALID,0.567969,
2009-10-19, 00:42:04,VALID,1006.02,VALID,0,VALID,94.5676,VALID,0,VALID,24.1884,VALID,67,VALID,0.300391,
2009-10-19, 00:43:04,VALID,1006.02,VALID,0,VALID,94.5829,VALID,0,VALID,24.1902,VALID,67,VALID,0.142188,
2009-10-19, 00:44:04,VALID,1005.99,VALID,0,VALID,94.5752,VALID,0,VALID,24.1689,VALID,67,VALID,0.338672,
2009-10-19, 00:45:04,VALID,1005.99,VALID,0,VALID,94.6134,VALID,0,VALID,24.1689,VALID,67,VALID,0.448047,
2009-10-19, 00:46:04,VALID,1005.98,VALID,0,VALID,94.621,VALID,0,VALID,24.1689,VALID,62,VALID,0.508203,
2009-10-19, 00:47:04,VALID,1005.95,VALID,0,VALID,94.5829,VALID,0,VALID,24.1494,VALID,53,VALID,0.23125,
2009-10-19, 00:48:04,VALID,1005.94,VALID,0,VALID,94.5905,VALID,0,VALID,24.1902,VALID,52,VALID,0.450781,
2009-10-19, 00:49:04,VALID,1005.91,VALID,0,VALID,94.5752,VALID,0,VALID,24.13,VALID,52,VALID,0,
2009-10-19, 00:50:04,VALID,1005.9,VALID,0,VALID,94.5905,VALID,0.100563,VALID,24.1494,VALID,50,VALID,0.524609,
2009-10-19, 00:51:04,VALID,1005.88,VALID,0,VALID,94.5981,VALID,0,VALID,24.1318,VALID,12,VALID,0.457422,
2009-10-19, 00:52:04,VALID,1005.85,VALID,0,VALID,94.5829,VALID,0,VALID,24.13,VALID,12,VALID,0.0414063,
2009-10-19, 00:53:04,VALID,1005.83,VALID,0,VALID,94.5676,VALID,0,VALID,24.1105,VALID,12,VALID,0.00078125,
2009-10-19, 00:54:04,VALID,1005.84,VALID,0,VALID,94.5829,VALID,0,VALID,24.13,VALID,12,VALID,0.278125,
2009-10-19, 00:55:04,VALID,1005.81,VALID,0,VALID,94.6134,VALID,0,VALID,24.1902,VALID,12,VALID,0.173438,
2009-10-19, 00:56:04,VALID,1005.82,VALID,0,VALID,94.6363,VALID,0,VALID,24.2097,VALID,12,VALID,0,
2009-10-19, 00:57:04,VALID,1005.78,VALID,0,VALID,94.6286,VALID,0,VALID,24.2291,VALID,12,VALID,0.179688,
2009-10-19, 00:58:04,VALID,1005.78,VALID,0,VALID,94.621,VALID,0,VALID,24.2097,VALID,12,VALID,0.00742187,
2009-10-19, 00:59:04,VALID,1005.78,VALID,0,VALID,94.6134,VALID,0,VALID,24.2486,VALID,12,VALID,0.252344,
2009-10-19, 01:00:04,VALID,1005.78,VALID,0,VALID,94.5829,VALID,0,VALID,24.2486,VALID,12,VALID,0,
2009-10-19, 01:01:04,VALID,1005.77,VALID,0,VALID,94.5752,VALID,0,VALID,24.2681,VALID,12,VALID,0.242578,
2009-10-19, 01:02:04,VALID,1005.78,VALID,0,VALID,94.5447,VALID,0,VALID,24.2875,VALID,12,VALID,0.241016,
2009-10-19, 01:03:04,VALID,1005.76,VALID,0,VALID,94.5142,VALID,0,VALID,24.2875,VALID,12,VALID,0.117188,
2009-10-19, 01:04:04,VALID,1005.75,VALID,0,VALID,94.4608,VALID,0,VALID,24.2662,VALID,12,VALID,0.207422,
2009-10-19, 01:05:04,VALID,1005.78,VALID,0,VALID,94.4532,VALID,0,VALID,24.307,VALID,12,VALID,0,
2009-10-19, 01:06:04,VALID,1005.74,VALID,0,VALID,94.4074,VALID,0,VALID,24.3265,VALID,12,VALID,0.267969,
2009-10-19, 01:07:04,VALID,1005.76,VALID,0,VALID,94.3845,VALID,0,VALID,24.3052,VALID,12,VALID,0.278906,
2009-10-19, 01:08:04,VALID,1005.75,VALID,0,VALID,94.3692,VALID,0,VALID,24.3052,VALID,12,VALID,0,
2009-10-19, 01:09:04,VALID,1005.76,VALID,0,VALID,94.3235,VALID,0,VALID,24.3052,VALID,12,VALID,0.342578,
2009-10-19, 01:10:04,VALID,1005.77,VALID,0,VALID,94.2701,VALID,0.100563,VALID,24.2857,VALID,12,VALID,0.0382813,
2009-10-19, 01:11:04,VALID,1005.74,VALID,0,VALID,94.2701,VALID,0,VALID,24.307,VALID,12,VALID,0.433203,
2009-10-19, 01:12:04,VALID,1005.76,VALID,0,VALID,94.2853,VALID,0,VALID,24.3052,VALID,12,VALID,0.210547,
2009-10-19, 01:13:04,VALID,1005.74,VALID,0,VALID,94.2548,VALID,0,VALID,24.3246,VALID,12,VALID,0,
2009-10-19, 01:14:04,VALID,1005.76,VALID,0,VALID,94.2167,VALID,0,VALID,24.3459,VALID,12,VALID,0.0464844,
2009-10-19, 01:15:04,VALID,1005.78,VALID,0,VALID,94.1633,VALID,0,VALID,24.3636,VALID,12,VALID,0.295312,
2009-10-19, 01:16:04,VALID,1005.76,VALID,0,VALID,94.1099,VALID,0,VALID,24.4043,VALID,12,VALID,0.186328,
2009-10-19, 01:17:04,VALID,1005.76,VALID,0,VALID,94.0031,VALID,0,VALID,24.4238,VALID,12,VALID,0.258203,
2009-10-19, 01:18:04,VALID,1005.78,VALID,0,VALID,93.8886,VALID,0,VALID,24.422,VALID,12,VALID,0.176953,
2009-10-19, 01:19:04,VALID,1005.78,VALID,0,VALID,93.7589,VALID,0,VALID,24.4238,VALID,12,VALID,0.212891,
2009-10-19, 01:20:04,VALID,1005.75,VALID,0,VALID,93.675,VALID,0,VALID,24.4238,VALID,12,VALID,0.571094,
2009-10-19, 01:21:04,VALID,1005.77,VALID,0,VALID,93.6216,VALID,0,VALID,24.422,VALID,12,VALID,0.235938,
2009-10-19, 01:22:04,VALID,1005.73,VALID,0,VALID,93.5835,VALID,0,VALID,24.4025,VALID,12,VALID,0.367188,
2009-10-19, 01:23:04,VALID,1005.74,VALID,0,VALID,93.5224,VALID,0,VALID,24.383,VALID,12,VALID,0.422266,
2009-10-19, 01:24:04,VALID,1005.71,VALID,0,VALID,93.4843,VALID,0,VALID,24.4043,VALID,12,VALID,0.419141,
2009-10-19, 01:25:04,VALID,1005.76,VALID,0,VALID,93.4843,VALID,0,VALID,24.3849,VALID,12,VALID,0.325781,
2009-10-19, 01:26:04,VALID,1005.72,VALID,0,VALID,93.4843,VALID,0,VALID,24.3441,VALID,12,VALID,0.216406,
2009-10-19, 01:27:04,VALID,1005.69,VALID,0,VALID,93.4996,VALID,0,VALID,24.3459,VALID,12,VALID,0.199609,
2009-10-19, 01:28:04,VALID,1005.68,VALID,0,VALID,93.553,VALID,0,VALID,24.3265,VALID,12,VALID,0.3625,
2009-10-19, 01:29:04,VALID,1005.65,VALID,0,VALID,93.5758,VALID,0,VALID,24.307,VALID,12,VALID,0.419922,
2009-10-19, 01:30:04,VALID,1005.66,VALID,0,VALID,93.6369,VALID,0,VALID,24.2662,VALID,12,VALID,0.246875,
2009-10-19, 01:31:04,VALID,1005.65,VALID,0,VALID,93.6674,VALID,0,VALID,24.2681,VALID,12,VALID,0.413672,
2009-10-19, 01:32:04,VALID,1005.66,VALID,0,VALID,93.7284,VALID,0,VALID,24.2078,VALID,12,VALID,0.357031,
2009-10-19, 01:33:04,VALID,1005.62,VALID,0,VALID,93.8047,VALID,0,VALID,24.2078,VALID,12,VALID,0.473828,
2009-10-19, 01:34:04,VALID,1005.61,VALID,0,VALID,93.8657,VALID,0,VALID,24.1689,VALID,12,VALID,0.253125,
2009-10-19, 01:35:04,VALID,1005.6,VALID,0,VALID,93.9115,VALID,0,VALID,24.1513,VALID,12,VALID,0.271094,
2009-10-19, 01:36:04,VALID,1005.56,VALID,0,VALID,93.9344,VALID,0,VALID,24.1318,VALID,12,VALID,0.219922,
2009-10-19, 01:37:04,VALID,1005.56,VALID,0,VALID,93.9802,VALID,0,VALID,24.1123,VALID,12,VALID,0,
2009-10-19, 01:38:04,VALID,1005.52,VALID,0,VALID,94.0259,VALID,0,VALID,24.0929,VALID,12,VALID,0,
2009-10-19, 01:39:04,VALID,1005.48,VALID,0,VALID,94.0794,VALID,0,VALID,24.0521,VALID,12,VALID,0,
2009-10-19, 01:40:04,VALID,1005.48,VALID,0,VALID,94.148,VALID,0,VALID,24.0521,VALID,12,VALID,0,
2009-10-19, 01:41:04,VALID,1005.46,VALID,0,VALID,94.209,VALID,0,VALID,24.0539,VALID,12,VALID,0,
2009-10-19, 01:42:04,VALID,1005.5,VALID,0,VALID,94.2243,VALID,0,VALID,24.0539,VALID,12,VALID,0,
2009-10-19, 01:43:04,VALID,1005.48,VALID,0,VALID,94.2853,VALID,0,VALID,24.0345,VALID,12,VALID,0.319531,
2009-10-19, 01:44:04,VALID,1005.5,VALID,0,VALID,94.354,VALID,0,VALID,24.0326,VALID,12,VALID,0.339453,
2009-10-19, 01:45:04,VALID,1005.46,VALID,0,VALID,94.3692,VALID,0,VALID,24.015,VALID,12,VALID,0.202734,
2009-10-19, 01:46:04,VALID,1005.46,VALID,0,VALID,94.3921,VALID,0,VALID,24.015,VALID,12,VALID,0.00195313,
2009-10-19, 01:47:04,VALID,1005.46,VALID,0,VALID,94.4379,VALID,0,VALID,24.015,VALID,12,VALID,0,
2009-10-19, 01:48:04,VALID,1005.47,VALID,0,VALID,94.4761,VALID,0,VALID,23.9937,VALID,12,VALID,0,
2009-10-19, 01:49:04,VALID,1005.4,VALID,0,VALID,94.5447,VALID,0,VALID,24.015,VALID,12,VALID,0,
2009-10-19, 01:50:04,VALID,1005.41,VALID,0,VALID,94.5447,VALID,0,VALID,24.015,VALID,12,VALID,0,
2009-10-19, 01:51:04,VALID,1005.4,VALID,0,VALID,94.5829,VALID,0,VALID,24.015,VALID,12,VALID,0,
2009-10-19, 01:52:04,VALID,1005.41,VALID,0,VALID,94.5676,VALID,0,VALID,23.9761,VALID,12,VALID,0,
2009-10-19, 01:53:04,VALID,1005.38,VALID,0,VALID,94.5905,VALID,0,VALID,23.9548,VALID,12,VALID,0,
2009-10-19, 01:54:04,VALID,1005.4,VALID,0,VALID,94.5829,VALID,0,VALID,23.9548,VALID,12,VALID,0,
2009-10-19, 01:55:04,VALID,1005.4,VALID,0,VALID,94.6134,VALID,0,VALID,23.9548,VALID,12,VALID,0,
2009-10-19, 01:56:04,VALID,1005.4,VALID,0,VALID,94.6134,VALID,0,VALID,23.9371,VALID,12,VALID,0,
2009-10-19, 01:57:04,VALID,1005.4,VALID,0,VALID,94.6057,VALID,0.100563,VALID,23.9371,VALID,12,VALID,0,
2009-10-19, 01:58:04,VALID,1005.39,VALID,0,VALID,94.621,VALID,0,VALID,23.8964,VALID,12,VALID,0,
2009-10-19, 01:59:04,VALID,1005.41,VALID,0,VALID,94.621,VALID,0,VALID,23.8982,VALID,12,VALID,0,
2009-10-19, 02:00:04,VALID,1005.42,VALID,0,VALID,94.6439,VALID,0,VALID,23.8787,VALID,12,VALID,0,
2009-10-19, 02:01:04,VALID,1005.43,VALID,0,VALID,94.6286,VALID,0,VALID,23.838,VALID,12,VALID,0,
2009-10-19, 02:02:04,VALID,1005.42,VALID,0,VALID,94.6363,VALID,0,VALID,23.8185,VALID,12,VALID,0,
2009-10-19, 02:03:04,VALID,1005.39,VALID,0,VALID,94.7049,VALID,0,VALID,23.8398,VALID,12,VALID,0,
2009-10-19, 02:04:04,VALID,1005.38,VALID,0,VALID,94.7125,VALID,0,VALID,23.8185,VALID,12,VALID,0,
2009-10-19, 02:05:04,VALID,1005.37,VALID,0,VALID,94.7278,VALID,0,VALID,23.8593,VALID,12,VALID,0,
2009-10-19, 02:06:04,VALID,1005.38,VALID,0,VALID,94.7736,VALID,0,VALID,23.8593,VALID,12,VALID,0,
2009-10-19, 02:07:04,VALID,1005.34,VALID,0,VALID,94.7888,VALID,0,VALID,23.8398,VALID,12,VALID,0,
2009-10-19, 02:08:04,VALID,1005.39,VALID,0,VALID,94.7812,VALID,0,VALID,23.7991,VALID,12,VALID,0,
2009-10-19, 02:09:04,VALID,1005.41,VALID,0,VALID,94.8041,VALID,0,VALID,23.8185,VALID,12,VALID,0,
2009-10-19, 02:10:04,VALID,1005.41,VALID,0,VALID,94.8346,VALID,0,VALID,23.838,VALID,12,VALID,0,
2009-10-19, 02:11:04,VALID,1005.39,VALID,0,VALID,94.8499,VALID,0,VALID,23.8787,VALID,12,VALID,0,
2009-10-19, 02:12:04,VALID,1005.4,VALID,0,VALID,94.9033,VALID,0,VALID,23.8769,VALID,12,VALID,0,
2009-10-19, 02:13:04,VALID,1005.43,VALID,0,VALID,94.9109,VALID,0,VALID,23.8787,VALID,12,VALID,0,
2009-10-19, 02:14:04,VALID,1005.42,VALID,0,VALID,94.9185,VALID,0,VALID,23.8575,VALID,12,VALID,0,
2009-10-19, 02:15:04,VALID,1005.4,VALID,0,VALID,94.9262,VALID,0,VALID,23.8787,VALID,12,VALID,0,
2009-10-19, 02:16:04,VALID,1005.4,VALID,0,VALID,94.9414,VALID,0,VALID,23.8575,VALID,12,VALID,0,
2009-10-19, 02:17:04,VALID,1005.37,VALID,0,VALID,94.9262,VALID,0,VALID,23.8769,VALID,12,VALID,0,
2009-10-19, 02:18:04,VALID,1005.38,VALID,0,VALID,94.9338,VALID,0,VALID,23.8982,VALID,12,VALID,0,
2009-10-19, 02:19:04,VALID,1005.35,VALID,0,VALID,94.9338,VALID,0,VALID,23.8769,VALID,12,VALID,0,
2009-10-19, 02:20:04,VALID,1005.38,VALID,0,VALID,94.949,VALID,0,VALID,23.8982,VALID,12,VALID,0,
2009-10-19, 02:21:04,VALID,1005.36,VALID,0,VALID,94.9567,VALID,0,VALID,23.8787,VALID,12,VALID,0,
2009-10-19, 02:22:04,VALID,1005.32,VALID,0,VALID,94.949,VALID,0,VALID,23.8769,VALID,12,VALID,0,
2009-10-19, 02:23:04,VALID,1005.33,VALID,0,VALID,94.9567,VALID,0.100563,VALID,23.8575,VALID,12,VALID,0,
2009-10-19, 02:24:04,VALID,1005.31,VALID,0,VALID,94.9567,VALID,0.100563,VALID,23.8575,VALID,12,VALID,0,
2009-10-19, 02:25:04,VALID,1005.29,VALID,0,VALID,94.9643,VALID,0,VALID,23.8787,VALID,12,VALID,0,
2009-10-19, 02:26:04,VALID,1005.3,VALID,0,VALID,94.9567,VALID,0,VALID,23.8787,VALID,12,VALID,0,
2009-10-19, 02:27:04,VALID,1005.29,VALID,0,VALID,94.9796,VALID,0,VALID,23.8575,VALID,12,VALID,0.284375,
2009-10-19, 02:28:04,VALID,1005.3,VALID,0,VALID,94.9719,VALID,0,VALID,23.8805,VALID,12,VALID,0.450391,
2009-10-19, 02:29:04,VALID,1005.28,VALID,0,VALID,94.9643,VALID,0,VALID,23.8805,VALID,12,VALID,0.339063,
2009-10-19, 02:30:04,VALID,1005.28,VALID,0,VALID,94.9719,VALID,0,VALID,23.8593,VALID,12,VALID,0.264062,
2009-10-19, 02:31:04,VALID,1005.27,VALID,0,VALID,94.9643,VALID,0,VALID,23.8398,VALID,12,VALID,0.370313,
2009-10-19, 02:32:04,VALID,1005.27,VALID,0,VALID,94.9796,VALID,0,VALID,23.8398,VALID,12,VALID,0.242188,
2009-10-19, 02:33:04,VALID,1005.27,VALID,0,VALID,94.9643,VALID,0,VALID,23.8009,VALID,12,VALID,0,
2009-10-19, 02:34:04,VALID,1005.23,VALID,0,VALID,94.9719,VALID,0,VALID,23.8203,VALID,12,VALID,0.171484,
2009-10-19, 02:35:04,VALID,1005.2,VALID,0,VALID,94.9796,VALID,0,VALID,23.7814,VALID,12,VALID,0.142188,
2009-10-19, 02:36:04,VALID,1005.2,VALID,0,VALID,94.9872,VALID,0,VALID,23.8009,VALID,12,VALID,0,
2009-10-19, 02:37:04,VALID,1005.2,VALID,0,VALID,94.9796,VALID,0,VALID,23.7814,VALID,12,VALID,0,
2009-10-19, 02:38:04,VALID,1005.17,VALID,0,VALID,94.9796,VALID,0,VALID,23.7832,VALID,12,VALID,0,
2009-10-19, 02:39:04,VALID,1005.17,VALID,0,VALID,94.9643,VALID,0,VALID,23.7619,VALID,12,VALID,0,
2009-10-19, 02:40:04,VALID,1005.15,VALID,0,VALID,94.9796,VALID,0,VALID,23.7425,VALID,12,VALID,0,
2009-10-19, 02:41:04,VALID,1005.13,VALID,0,VALID,94.9719,VALID,0,VALID,23.7832,VALID,12,VALID,0.359766,
2009-10-19, 02:42:04,VALID,1005.12,VALID,0,VALID,94.9796,VALID,0,VALID,23.7832,VALID,12,VALID,0.241016,
2009-10-19, 02:43:04,VALID,1005.1,VALID,0,VALID,94.9872,VALID,0,VALID,23.7601,VALID,12,VALID,0.11875,
2009-10-19, 02:44:04,VALID,1005.08,VALID,0,VALID,94.9719,VALID,0,VALID,23.7194,VALID,12,VALID,0.18125,
2009-10-19, 02:45:04,VALID,1005.08,VALID,0,VALID,94.9719,VALID,0,VALID,23.7425,VALID,12,VALID,0.202344,
2009-10-19, 02:46:04,VALID,1005.05,VALID,0,VALID,94.949,VALID,0,VALID,23.7017,VALID,12,VALID,0.347656,
2009-10-19, 02:47:04,VALID,1005.04,VALID,0,VALID,94.9643,VALID,0,VALID,23.7212,VALID,12,VALID,0.198047,
2009-10-19, 02:48:04,VALID,1005.03,VALID,0,VALID,94.9643,VALID,0,VALID,23.7017,VALID,12,VALID,0.151172,
2009-10-19, 02:49:04,VALID,1005.02,VALID,0,VALID,94.949,VALID,0,VALID,23.723,VALID,12,VALID,0.405078,
2009-10-19, 02:50:04,VALID,1005.03,VALID,0,VALID,94.9414,VALID,0,VALID,23.6823,VALID,12,VALID,0.111719,
2009-10-19, 02:51:04,VALID,1005.06,VALID,0,VALID,94.9338,VALID,0,VALID,23.6416,VALID,12,VALID,0,
2009-10-19, 02:52:04,VALID,1005.06,VALID,0,VALID,94.9338,VALID,0,VALID,23.6841,VALID,12,VALID,0,
2009-10-19, 02:53:04,VALID,1005.03,VALID,0,VALID,94.9567,VALID,0,VALID,23.6841,VALID,12,VALID,0,
2009-10-19, 02:54:04,VALID,1005.04,VALID,0,VALID,94.9185,VALID,0,VALID,23.6628,VALID,12,VALID,0,
2009-10-19, 02:55:04,VALID,1005.01,VALID,0,VALID,94.9414,VALID,0,VALID,23.6434,VALID,12,VALID,0,
2009-10-19, 02:56:04,VALID,1005.01,VALID,0,VALID,94.9414,VALID,0.100563,VALID,23.6434,VALID,12,VALID,0,
2009-10-19, 02:57:04,VALID,1005.02,VALID,0,VALID,94.9567,VALID,0,VALID,23.6434,VALID,12,VALID,0,
2009-10-19, 02:58:04,VALID,1005.02,VALID,0,VALID,94.9414,VALID,0,VALID,23.6452,VALID,12,VALID,0,
2009-10-19, 02:59:04,VALID,1005,VALID,0,VALID,94.949,VALID,0,VALID,23.6841,VALID,12,VALID,0,
2009-10-19, 03:00:04,VALID,1005.01,VALID,0,VALID,94.9948,VALID,0,VALID,23.7248,VALID,12,VALID,0,
2009-10-19, 03:01:04,VALID,1005.02,VALID,0,VALID,94.9872,VALID,0,VALID,23.7035,VALID,12,VALID,0,
2009-10-19, 03:02:04,VALID,1005.01,VALID,0,VALID,94.9719,VALID,0,VALID,23.7035,VALID,12,VALID,0,
2009-10-19, 03:03:04,VALID,1005.01,VALID,0,VALID,94.9567,VALID,0,VALID,23.7035,VALID,12,VALID,0,
2009-10-19, 03:04:04,VALID,1005,VALID,0,VALID,94.9567,VALID,0,VALID,23.7035,VALID,12,VALID,0,
2009-10-19, 03:05:04,VALID,1005,VALID,0,VALID,94.9643,VALID,0,VALID,23.723,VALID,12,VALID,0,
2009-10-19, 03:06:04,VALID,1004.98,VALID,0,VALID,94.949,VALID,0,VALID,23.723,VALID,12,VALID,0,
2009-10-19, 03:07:04,VALID,1004.98,VALID,0,VALID,94.9185,VALID,0,VALID,23.723,VALID,12,VALID,0,
2009-10-19, 03:08:04,VALID,1004.98,VALID,0,VALID,94.9033,VALID,0,VALID,23.7035,VALID,12,VALID,0,
2009-10-19, 03:09:04,VALID,1004.97,VALID,0,VALID,94.8728,VALID,0,VALID,23.7035,VALID,12,VALID,0,
2009-10-19, 03:10:04,VALID,1004.96,VALID,0,VALID,94.8575,VALID,0,VALID,23.7035,VALID,12,VALID,0,
2009-10-19, 03:11:04,VALID,1004.95,VALID,0,VALID,94.8651,VALID,0,VALID,23.7248,VALID,12,VALID,0,
2009-10-19, 03:12:04,VALID,1004.94,VALID,0,VALID,94.8499,VALID,0,VALID,23.6823,VALID,12,VALID,0,
2009-10-19, 03:13:04,VALID,1004.94,VALID,0,VALID,94.8346,VALID,0,VALID,23.6841,VALID,12,VALID,0,
2009-10-19, 03:14:04,VALID,1004.97,VALID,0,VALID,94.8041,VALID,0,VALID,23.6841,VALID,12,VALID,0,
2009-10-19, 03:15:04,VALID,1004.97,VALID,0,VALID,94.8041,VALID,0,VALID,23.6646,VALID,13,VALID,0,
2009-10-19, 03:16:04,VALID,1005.01,VALID,0,VALID,94.8041,VALID,0,VALID,23.6859,VALID,13,VALID,0,
2009-10-19, 03:17:04,VALID,1005.02,VALID,0,VALID,94.7965,VALID,0,VALID,23.6646,VALID,12,VALID,0,
2009-10-19, 03:18:04,VALID,1005.01,VALID,0,VALID,94.7888,VALID,0,VALID,23.6452,VALID,12,VALID,0,
2009-10-19, 03:19:04,VALID,1005.02,VALID,0,VALID,94.7965,VALID,0,VALID,23.6646,VALID,13,VALID,0,
2009-10-19, 03:20:04,VALID,1005.02,VALID,0,VALID,94.7888,VALID,0,VALID,23.6646,VALID,13,VALID,0,
2009-10-19, 03:21:04,VALID,1005.03,VALID,0,VALID,94.7965,VALID,0,VALID,23.6646,VALID,13,VALID,0,
2009-10-19, 03:22:04,VALID,1005.05,VALID,0,VALID,94.7965,VALID,0,VALID,23.6452,VALID,13,VALID,0,
2009-10-19, 03:23:04,VALID,1005.05,VALID,0,VALID,94.8041,VALID,0,VALID,23.6646,VALID,13,VALID,0,
2009-10-19, 03:24:04,VALID,1005.04,VALID,0,VALID,94.7888,VALID,0,VALID,23.6646,VALID,13,VALID,0,
2009-10-19, 03:25:04,VALID,1005.03,VALID,0,VALID,94.7888,VALID,0,VALID,23.6859,VALID,13,VALID,0,
2009-10-19, 03:26:04,VALID,1005.05,VALID,0,VALID,94.7812,VALID,0,VALID,23.6859,VALID,12,VALID,0,
2009-10-19, 03:27:04,VALID,1005.05,VALID,0,VALID,94.766,VALID,0,VALID,23.6646,VALID,13,VALID,0,
2009-10-19, 03:28:04,VALID,1005.05,VALID,0,VALID,94.7583,VALID,0,VALID,23.6646,VALID,13,VALID,0,
2009-10-19, 03:29:04,VALID,1005.05,VALID,0,VALID,94.7583,VALID,0,VALID,23.6646,VALID,13,VALID,0,
2009-10-19, 03:30:04,VALID,1005.07,VALID,0,VALID,94.7354,VALID,0,VALID,23.6646,VALID,13,VALID,0,
2009-10-19, 03:31:04,VALID,1005.07,VALID,0,VALID,94.7278,VALID,0,VALID,23.6664,VALID,13,VALID,0,
2009-10-19, 03:32:04,VALID,1005.1,VALID,0,VALID,94.7049,VALID,0,VALID,23.6469,VALID,13,VALID,0,
2009-10-19, 03:33:04,VALID,1005.12,VALID,0,VALID,94.6973,VALID,0,VALID,23.6257,VALID,12,VALID,0,
2009-10-19, 03:34:04,VALID,1005.11,VALID,0,VALID,94.6744,VALID,0,VALID,23.6062,VALID,13,VALID,0,
2009-10-19, 03:35:04,VALID,1005.17,VALID,0,VALID,94.6515,VALID,0,VALID,23.5868,VALID,12,VALID,0,
2009-10-19, 03:36:04,VALID,1005.18,VALID,0,VALID,94.6744,VALID,0,VALID,23.5868,VALID,13,VALID,0,
2009-10-19, 03:37:04,VALID,1005.21,VALID,0,VALID,94.6591,VALID,0,VALID,23.5673,VALID,13,VALID,0,
2009-10-19, 03:38:04,VALID,1005.23,VALID,0,VALID,94.6668,VALID,0,VALID,23.5478,VALID,13,VALID,0,
2009-10-19, 03:39:04,VALID,1005.23,VALID,0,VALID,94.6744,VALID,0,VALID,23.5673,VALID,13,VALID,0,
2009-10-19, 03:40:04,VALID,1005.23,VALID,0,VALID,94.7125,VALID,0,VALID,23.5673,VALID,13,VALID,0,
2009-10-19, 03:41:04,VALID,1005.2,VALID,0,VALID,94.7278,VALID,0,VALID,23.5673,VALID,13,VALID,0,
2009-10-19, 03:42:04,VALID,1005.22,VALID,0,VALID,94.7431,VALID,0,VALID,23.5478,VALID,13,VALID,0,
2009-10-19, 03:43:04,VALID,1005.19,VALID,0,VALID,94.7431,VALID,0,VALID,23.5284,VALID,12,VALID,0,
2009-10-19, 03:44:04,VALID,1005.2,VALID,0,VALID,94.7583,VALID,0,VALID,23.5673,VALID,12,VALID,0,
2009-10-19, 03:45:04,VALID,1005.19,VALID,0,VALID,94.7736,VALID,0,VALID,23.5266,VALID,13,VALID,0,
2009-10-19, 03:46:04,VALID,1005.21,VALID,0,VALID,94.766,VALID,0,VALID,23.5478,VALID,12,VALID,0,
2009-10-19, 03:47:04,VALID,1005.21,VALID,0,VALID,94.7583,VALID,0,VALID,23.5284,VALID,12,VALID,0,
2009-10-19, 03:48:04,VALID,1005.23,VALID,0,VALID,94.7736,VALID,0,VALID,23.5478,VALID,13,VALID,0,
2009-10-19, 03:49:04,VALID,1005.21,VALID,0,VALID,94.7736,VALID,0,VALID,23.5673,VALID,12,VALID,0,
2009-10-19, 03:50:04,VALID,1005.23,VALID,0,VALID,94.766,VALID,0,VALID,23.546,VALID,12,VALID,0,
2009-10-19, 03:51:04,VALID,1005.28,VALID,0,VALID,94.7736,VALID,0,VALID,23.546,VALID,12,VALID,0,
2009-10-19, 03:52:04,VALID,1005.29,VALID,0,VALID,94.7812,VALID,0,VALID,23.5673,VALID,12,VALID,0,
2009-10-19, 03:53:04,VALID,1005.31,VALID,0,VALID,94.7812,VALID,0,VALID,23.5691,VALID,12,VALID,0,
2009-10-19, 03:54:04,VALID,1005.29,VALID,0,VALID,94.7431,VALID,0,VALID,23.5673,VALID,12,VALID,0,
2009-10-19, 03:55:04,VALID,1005.31,VALID,0,VALID,94.7431,VALID,0,VALID,23.5478,VALID,13,VALID,0,
2009-10-19, 03:56:04,VALID,1005.32,VALID,0,VALID,94.7507,VALID,0,VALID,23.5478,VALID,13,VALID,0,